2023/11/01 00:00:00, 0.4, 9.8
2023/11/01 00:10:00, 0.4, 9.9
2023/11/01 00:20:00, 0.4, 9.8
2023/11/01 00:30:00, 0.4, 9.6
2023/11/01 00:40:00, 0.4, 9.4
2023/11/01 00:50:00, 0.4, 9.7
2023/11/01 01:00:00, 0.4, 9.0
2023/11/01 01:10:00, 0.5, 8.9
2023/11/01 01:20:00, 0.5, 9.1
2023/11/01 01:30:00, 0.4, 9.2
2023/11/01 01:40:00, 0.4, 9.0
2023/11/01 01:50:00, 0.4, 9.2
2023/11/01 02:00:00, 0.5, 8.7
2023/11/01 02:10:00, 0.4, 8.8
2023/11/01 02:20:00, 0.5, 8.5
2023/11/01 02:30:00, 0.5, 9.0
2023/11/01 02:40:00, 0.5, 8.7
2023/11/01 02:50:00, 0.5, 9.0
2023/11/01 03:00:00, 0.6, 8.8
2023/11/01 03:10:00, 0.6, 8.4
2023/11/01 03:20:00, 0.5, 8.2
2023/11/01 03:30:00, 0.5, 8.6
2023/11/01 03:40:00, 0.5, 8.8
2023/11/01 03:50:00, 0.5, 9.4
2023/11/01 04:00:00, 0.4, 8.4
2023/11/01 04:10:00, 0.4, 8.3
2023/11/01 04:20:00, 0.4, 9.0
2023/11/01 04:30:00, 0.5, 9.2
2023/11/01 04:40:00, 0.5, 8.2
2023/11/01 04:50:00, 0.4, 8.9
2023/11/01 05:00:00, 0.4, 8.7
2023/11/01 05:10:00, 0.5, 8.0
2023/11/01 05:20:00, 0.4, 8.0
2023/11/01 05:30:00, 0.4, 7.9
2023/11/01 05:40:00, 0.4, 7.7
2023/11/01 05:50:00, 0.4, 7.1
2023/11/01 06:00:00, 0.4, 7.8
2023/11/01 06:10:00, 0.4, 7.5
2023/11/01 06:20:00, 0.4, 7.3
2023/11/01 06:30:00, 0.4, 7.0
2023/11/01 06:40:00, 0.4, 7.1
2023/11/01 06:50:00, 0.4, 7.3
2023/11/01 07:00:00, 0.4, 7.5
2023/11/01 07:10:00, 0.4, 7.4
2023/11/01 07:20:00, 0.4, 8.3
2023/11/01 07:30:00, 0.4, 8.9
2023/11/01 07:40:00, 0.5,12.5
2023/11/01 07:50:00, 0.5,14.2
2023/11/01 08:00:00, 0.5,16.4
2023/11/01 08:10:00, 0.5,16.8
2023/11/01 08:20:00, 0.5,16.4
2023/11/01 08:30:00, 0.5,16.8
2023/11/01 08:40:00, 0.5,17.2
2023/11/01 08:50:00, 0.6,18.0
2023/11/01 09:00:00, 0.6,18.6
2023/11/01 09:10:00, 0.5,18.7
2023/11/01 09:20:00, 0.5,19.5
2023/11/01 09:30:00, 0.4,20.4
2023/11/01 09:40:00, 0.4,20.6
2023/11/01 09:50:00, 0.5,22.2
2023/11/01 10:00:00, 0.4,23.3
2023/11/01 10:10:00, 0.4,24.0
2023/11/01 10:20:00, 0.3,24.4
2023/11/01 10:30:00, 0.3,25.4
2023/11/01 10:40:00, 0.2,25.5
2023/11/01 10:50:00, 0.3,26.1
2023/11/01 11:00:00, 0.3,25.9
2023/11/01 11:10:00, 0.3,27.1
2023/11/01 11:20:00, 0.3,27.9
2023/11/01 11:30:00, 0.2,28.8
2023/11/01 11:40:00, 0.1,29.2
2023/11/01 11:50:00, 0.1,29.6
2023/11/01 12:00:00, 0.1,30.1
2023/11/01 12:10:00, 0.0,29.2
2023/11/01 12:20:00, 0.0,29.3
2023/11/01 12:30:00, 0.0,31.1
2023/11/01 12:40:00, 0.0,30.0
2023/11/01 12:50:00, 0.0,29.7
2023/11/01 13:00:00, 0.0,29.0
2023/11/01 13:10:00, 0.0,29.7
2023/11/01 13:20:00, 0.0,30.3
2023/11/01 13:30:00, 0.0,29.1
2023/11/01 13:40:00, 0.0,31.4
2023/11/01 13:50:00, 0.0,31.8
2023/11/01 14:00:00, 0.0,29.1
2023/11/01 14:10:00, 0.0,28.7
2023/11/01 14:20:00, 0.0,27.6
2023/11/01 14:30:00, 0.0,27.8
2023/11/01 14:40:00, 0.0,27.1
2023/11/01 14:50:00, 0.0,27.3
2023/11/01 15:00:00, 0.0,27.3
2023/11/01 15:10:00, 0.0,27.4
2023/11/01 15:20:00, 0.1,26.9
2023/11/01 15:30:00, 0.0,26.6
2023/11/01 15:40:00, 0.0,23.8
2023/11/01 15:50:00, 0.0,24.8
2023/11/01 16:00:00, 0.0,24.8
2023/11/01 16:10:00, 0.1,24.3
2023/11/01 16:20:00, 0.1,24.0
2023/11/01 16:30:00, 0.2,23.0
2023/11/01 16:40:00, 0.2,20.5
2023/11/01 16:50:00, 0.3,19.4
2023/11/01 17:00:00, 0.3,18.2
2023/11/01 17:10:00, 0.3,18.4
2023/11/01 17:20:00, 0.3,17.5
2023/11/01 17:30:00, 0.3,17.1
2023/11/01 17:40:00, 0.3,16.8
2023/11/01 17:50:00, 0.3,16.2
2023/11/01 18:00:00, 0.3,16.2
2023/11/01 18:10:00, 0.3,15.6
2023/11/01 18:20:00, 0.3,16.4
2023/11/01 18:30:00, 0.3,15.9
2023/11/01 18:40:00, 0.3,14.7
2023/11/01 18:50:00, 0.3,15.3
2023/11/01 19:00:00, 0.4,14.6
2023/11/01 19:10:00, 0.4,14.9
2023/11/01 19:20:00, 0.4,14.9
2023/11/01 19:30:00, 0.4,14.9
2023/11/01 19:40:00, 0.3,14.5
2023/11/01 19:50:00, 0.4,14.4
2023/11/01 20:00:00, 0.4,13.9
2023/11/01 20:10:00, 0.4,13.7
2023/11/01 20:20:00, 0.4,14.1
2023/11/01 20:30:00, 0.4,13.6
2023/11/01 20:40:00, 0.5,14.1
2023/11/01 20:50:00, 0.5,13.7
2023/11/01 21:00:00, 0.5,13.8
2023/11/01 21:10:00, 0.5,13.9
2023/11/01 21:20:00, 0.5,13.9
2023/11/01 21:30:00, 0.5,13.7
2023/11/01 21:40:00, 0.4,13.4
2023/11/01 21:50:00, 0.4,13.4
2023/11/01 22:00:00, 0.4,13.4
2023/11/01 22:10:00, 0.4,13.2
2023/11/01 22:20:00, 0.4,13.4
2023/11/01 22:30:00, 0.4,13.5
2023/11/01 22:40:00, 0.4,13.4
2023/11/01 22:50:00, 0.4,13.2
2023/11/01 23:00:00, 0.4,13.1
2023/11/01 23:10:00, 0.4,12.9
2023/11/01 23:20:00, 0.3,12.6
2023/11/01 23:30:00, 0.3,12.3
2023/11/01 23:40:00, 0.3,11.8
2023/11/01 23:50:00, 0.4,11.5
